Location: Ballylusky
(52.3844°N, 7.1661°W)
Time: 06:40:44
(UTC+00:00)

Daily predictions for brighter satellites

Satellite Brightness Start Highest point End
(mag) Time Altitude Azimuth Time Altitude Azimuth Time Altitude Azimuth
BREEZE-M DEB (TANK) 3.9 17:29:50 10° SW 17:33:05 66° SSE 17:44:00 10° ENE
NOSS 3-4 (A) 4.5 17:30:42 10° NW 17:36:40 36° NNE 17:43:14 10° E
NOSS 3-4 (C) 4.5 17:30:48 10° NW 17:36:46 36° NNE 17:43:19 10° E
CZ-4C R/B 3.6 17:31:38 10° WNW 17:37:00 32° N 17:43:20 10° ENE
NOSS 2-2 (D) 4.3 17:33:54 10° NW 17:38:59 72° NE 17:46:04 10° SE
Cosmos 1953 Rocket 3.9 17:35:48 10° N 17:40:01 42° ENE 17:44:14 10° SE
NOAA 12 4.1 17:34:50 10° SSE 17:40:08 78° ENE 17:45:29 10° NNW
Cosmos 1300 3.6 17:40:27 10° SSE 17:43:43 28° E 17:47:01 10° NNE
SL-4 R/B 1.7 17:41:34 10° W 17:45:04 77° S 17:48:45 10° E
Cosmos 1703 3.8 17:42:40 10° NNW 17:46:35 64° W 17:50:29 10° S
Cosmos 1697 Rocket 4.4 17:45:53 10° ESE 17:47:03 11° E 17:48:12 10° E
Cosmos 1331 Rocket 4.4 17:42:17 10° S 17:47:08 43° ESE 17:52:00 10° NE
Cosmos 2058 Rocket 4.2 17:43:36 10° SE 17:47:10 24° E 17:50:46 10° NE
Cosmos 1346 Rocket 4.3 17:44:54 10° NNE 17:47:43 18° ENE 17:50:31 10° ESE
USA 305 2.9 17:44:25 10° WNW 17:48:45 77° N 17:53:03 10° E
H-2A R/B 4.0 17:45:20 10° S 17:49:38 45° W 17:54:00 10° NNW
NOSS 2-1 (C) 4.1 17:46:26 10° WSW 17:49:39 41° NNW 17:53:21 10° NE
Cosmos 1825 4.1 17:48:36 10° NE 17:49:53 11° ENE 17:51:10 10° E
IRS-1C Rocket 4.4 17:45:00 10° SE 17:50:00 46° ENE 17:55:02 10° N
CZ-2D R/B 4.2 17:46:48 10° ESE 17:50:02 26° ENE 17:53:15 10° N
Cosmos 1953 3.3 17:47:10 10° SSW 17:51:02 51° WNW 17:54:56 10° N
SeaSat 1 3.7 17:47:19 10° E 17:51:06 23° NE 17:54:56 10° NNW
Cosmos 44 3.9 17:50:07 10° S 17:54:11 34° ESE 17:58:30 10° NE
NOSS 2-1 (D) 4.2 17:51:45 10° WSW 17:54:55 38° NNW 17:58:35 10° NE
USA 306 2.9 17:50:50 10° WNW 17:55:09 79° NNE 17:59:27 10° E
CSL-04 DEB 4.3 17:52:25 10° NNE 17:56:25 87° ESE 18:00:19 10° SSW
NOAA 11 4.2 17:52:01 10° SSE 17:57:25 71° ENE 18:02:51 10° NNW
USA 215 3.5 17:52:00 10° ENE 17:58:25 60° N 18:04:50 10° WNW
SAR-Lupe-4 4.4 17:55:16 10° NE 17:58:27 29° E 18:01:37 10° SSE
ERS-2 2.3 17:55:06 10° NNE 17:58:40 51° ESE 18:02:13 10° S
ATLAS 2AS CENTAUR R/B 3.6 17:51:30 10° NW 17:58:45 39° NNE 18:05:17 11° E
BREEZE-M R/B 3.4 17:55:44 10° WSW 17:59:02 62° S 18:05:18 10° E
Cosmos 1818 4.2 17:56:09 10° WSW 18:01:31 57° NW 18:06:55 10° NE
Cosmos 968 Rocket 3.8 17:56:46 10° NNW 18:01:48 44° NE 18:06:46 10° SE
Cosmos 1340 3.1 17:59:21 10° N 18:02:57 40° ENE 18:06:31 10° SE
Cosmos 2297 Rocket 2.2 18:00:30 10° NNW 18:06:12 70° NE 18:11:51 10° SE
Cosmos 2369 Rocket 3.7 18:01:53 10° WSW 18:07:03 34° NW 18:12:15 10° NNE
COSMO-SKYMED 1 3.3 18:03:15 10° NNE 18:07:13 33° E 18:11:08 10° SSE
In-Cosmos 22 Rocket 4.3 18:03:48 10° N 18:09:01 51° ENE 18:14:18 10° SSE
H-2A R/B 2.6 18:05:01 10° N 18:09:09 58° WNW 18:13:11 10° SSW
Aureole 3 Rocket 3.8 18:08:47 10° SSE 18:12:43 40° E 18:18:04 10° NNE
Cosmos 1110 Rocket 4.0 18:10:29 10° SSW 18:15:43 78° ESE 18:20:58 10° NNE
FengYun 1-2 T 4.5 18:10:15 10° SSE 18:15:55 80° WSW 18:21:35 10° NNW
SAR-Lupe-1 4.4 18:12:58 10° NNE 18:16:25 41° E 18:19:50 10° S
Cosmos 1825 Rocket 4.1 18:12:22 10° NNW 18:16:48 63° W 18:21:09 10° S
Cosmos 1302 Rocket 4.4 18:13:12 10° S 18:18:09 43° ESE 18:23:08 10° NE
Lacrosse 5 2.4 18:14:33 10° W 18:19:30 52° N 18:23:30 16° ENE
FALCON 9 DEB 3.1 18:16:24 10° W 18:19:51 79° N 18:22:07 20° E
ERBS 3.3 18:18:47 10° WNW 18:21:56 36° N 18:24:02 18° NE
FALCON 9 DEB 4.2 18:19:12 10° SSW 18:22:02 28° SSE 18:23:30 20° ESE
Cosmos 1486 Rocket 4.0 18:17:04 10° NNW 18:22:24 63° ENE 18:27:40 10° SE
Cosmos 292 Rocket 3.8 18:18:27 10° SSW 18:23:12 65° ESE 18:28:00 10° NNE
Okean O Rocket 3.1 18:19:30 10° S 18:23:38 41° W 18:27:46 10° NNW
YAOGAN 1 2.9 18:20:59 10° SE 18:25:05 42° ENE 18:29:11 10° N
Aureole 3 3.0 18:23:14 10° SSE 18:26:10 41° E 18:29:00 10° NNE
FALCON 9 DEB 4.0 18:23:19 10° SSW 18:26:11 31° SSE 18:27:30 22° ESE
ADEOS Rocket 3.9 18:22:37 10° N 18:28:45 57° WNW 18:35:32 10° SW
Cosmos 1503 Rocket 4.2 18:27:07 10° NNW 18:32:10 47° ENE 18:37:11 10° SE
Cosmos 1455 3.6 18:29:21 10° SE 18:31:13 19° ESE 18:31:13 19° ESE
Meteor 2-8 Rocket 4.5 18:26:30 10° S 18:32:28 59° E 18:38:30 10° NNE
CZ-2C R/B 3.3 18:29:37 10° SE 18:35:15 57° ENE 18:40:44 10° N
Cosmos 1726 Rocket 3.5 18:31:14 10° S 18:35:35 87° W 18:40:01 10° N
Cosmos 2219 3.5 18:30:47 10° NNW 18:36:34 75° WSW 18:42:18 10° SSE
CZ-4B R/B 1.8 18:34:05 10° N 18:37:19 59° WNW 18:40:26 10° SSW
USA 307 2.9 18:33:50 10° WNW 18:38:08 80° SSW 18:40:52 22° ESE
FALCON 9 DEB 3.8 18:35:14 10° SW 18:38:14 35° SSE 18:39:10 28° ESE
Cosmos 1943 Rocket 4.3 18:37:21 10° WNW 18:41:12 19° NNW 18:45:01 10° NNE
Cosmos 1939 Rocket 3.1 18:37:51 10° S 18:41:49 71° WSW 18:45:44 10° NNW
Cosmos 2228 3.7 18:38:16 10° SSW 18:42:27 57° WNW 18:46:42 10° N
USA 308 3.0 18:38:40 10° WNW 18:42:58 77° SSW 18:45:31 23° ESE
Cosmos 1354 Rocket 4.2 18:38:36 10° NNW 18:43:45 51° ENE 18:47:53 16° SE
Cosmos 2082 3.7 18:39:32 10° NNW 18:45:16 67° NE 18:50:45 11° SE
Meteor 2-10 Rocket 3.8 18:40:38 10° SSE 18:45:33 41° E 18:50:21 10° NNE
Cosmos 1553 Rocket 4.0 18:39:55 10° S 18:46:09 63° E 18:52:20 10° NNE
Helios 1A Rocket 2.9 18:45:09 10° SSE 18:49:16 83° WSW 18:53:24 10° NNW
FALCON 9 DEB 3.5 18:46:42 10° SW 18:49:46 42° SSE 18:50:17 38° SE
Cosmos 2278 Rocket 4.4 18:48:06 10° NNW 18:49:59 12° N 18:51:52 10° NNE
Cosmos 1606 Rocket 4.5 18:47:03 10° SSW 18:51:19 51° WNW 18:55:40 10° N
ATLAS 5 CENTAUR R/B 3.4 18:47:39 10° WNW 18:51:31 26° NNW 18:55:01 14° NE
Cosmos 1689 Rocket 1.8 18:48:43 10° NNE 18:51:38 86° ESE 18:54:31 10° SSW
GENESIS II 4.5 18:48:22 10° SW 18:52:24 70° NW 18:55:03 21° NE
SKYMED 2 3.5 18:51:05 10° NNE 18:55:28 90° ESE 18:59:49 10° SSW
Cosmos 2151 3.9 18:52:56 10° N 18:56:03 28° NE 18:56:03 28° NE
Okean-O 2.7 18:52:38 10° SSE 18:57:04 81° WSW 19:01:33 10° NNW
Cosmos 1992 Rocket 4.4 18:52:23 10° S 18:57:10 38° ESE 18:59:49 23° NE
ARGOS 3.3 18:54:41 14° SE 18:59:09 50° ENE 19:04:24 10° N
SL-08 RB Rocket 4.3 19:00:38 34° ENE 19:00:57 34° ENE 19:05:01 10° N
Cosmos 1400 Rocket 3.0 18:57:22 10° SSW 19:01:29 76° WNW 19:05:35 10° N
Cosmos 2369 4.3 18:56:57 10° S 19:02:01 34° ESE 19:03:11 31° E
PSLV R/B 3.9 18:58:43 10° NNE 19:02:57 89° ESE 19:07:06 10° SSW
Cosmos 1844 Rocket 4.4 19:00:28 10° NNW 19:04:03 17° NNE 19:05:18 16° NE
Cosmos 2058 2.7 19:00:44 10° N 19:04:52 86° E 19:08:58 10° S
Cosmos 1656 3.6 18:59:24 10° SSW 19:04:56 67° ESE 19:10:04 13° NE
Cosmos 1892 3.0 19:01:05 10° NNW 19:04:58 68° W 19:08:49 10° S
CZ-4 R/B 1.5 19:02:02 10° S 19:05:54 69° WSW 19:09:46 10° NNW
Meteor 2-15 4.3 19:00:20 10° S 19:06:25 69° E 19:12:31 10° NNE
H-2A R/B 2.1 19:02:28 10° SSE 19:07:52 73° ENE 19:13:20 10° NNW
Geosat 4.4 19:06:43 34° ENE 19:08:04 41° ESE 19:12:48 10° S
Ariane Rocket 3.7 19:07:50 33° ENE 19:08:11 33° ENE 19:12:43 10° N
Cosmos 1408 2.4 19:04:51 10° N 19:08:31 90° NNE 19:11:40 14° S
Cosmos 1745 Rocket 4.0 19:02:13 10° N 19:08:33 87° E 19:14:54 10° S
GEOS 3 Rocket 3.7 19:05:41 21° SE 19:09:26 85° SW 19:14:53 10° NW
Cosmos 2227 Rocket 2.9 19:04:49 10° NW 19:10:20 55° WSW 19:15:50 10° S
Cosmos 220 Rocket 4.2 19:06:12 10° S 19:10:24 48° ESE 19:10:52 46° E
Cosmos 2263 Rocket 2.7 19:10:47 10° NNW 19:16:10 41° NE 19:17:16 37° ENE
CSL-04 Rocket 3.6 19:11:37 10° SSE 19:17:11 85° ENE 19:22:44 10° NNW
Timation 1 Rocket 4.3 19:11:11 10° NNW 19:17:15 77° NE 19:20:34 28° SE
Cosmos 1346 Rocket 3.4 19:20:31 10° NNW 19:24:26 56° W 19:28:20 10° S
SL-4 R/B 1.8 19:20:59 10° W 19:24:34 65° SSW 19:24:38 65° S
Cosmos 2058 Rocket 4.1 19:20:33 10° SSW 19:24:54 47° WNW 19:29:17 10° N
Meteor 2-1 Rocket 4.0 19:19:40 10° S 19:25:09 75° E 19:30:42 10° NNE
Cosmos 1825 2.0 19:22:12 10° N 19:26:01 89° W 19:26:28 69° S
CZ-4C R/B 3.2 19:20:48 10° NW 19:27:06 46° NNE 19:29:36 35° ENE
SeaSat 1 2.3 19:26:15 40° SE 19:28:05 84° ENE 19:33:04 10° NNW
NOSS 3-4 (A) 3.7 19:21:52 10° NW 19:28:39 71° NE 19:31:38 39° ESE
USA 305 3.6 19:24:31 10° WNW 19:28:41 48° SSW 19:29:36 40° S
NOSS 3-4 (C) 3.7 19:21:58 10° NW 19:28:45 71° NE 19:31:43 39° ESE
Cosmos 1697 Rocket 2.6 19:24:19 10° SSW 19:29:49 59° ESE 19:31:25 43° ENE
CRYOSAT 2 4.2 19:24:58 10° N 19:29:52 87° E 19:34:45 10° S
Cosmos 1315 Rocket 2.8 19:28:44 10° S 19:32:11 66° S 19:32:11 66° S
USA 306 3.6 19:30:58 10° WNW 19:35:03 44° SSW 19:35:44 40° S
DEBRIS 4.4 19:17:50 10° SW 19:35:09 54° SSE 19:36:49 43° ESE
Cosmos 44 3.9 19:30:45 10° WSW 19:35:15 51° NW 19:37:30 28° NNE
Cosmos 1709 Rocket 3.9 19:31:55 10° N 19:38:20 85° E 19:44:29 11° S
HJ-1C 4.3 19:40:52 48° WNW 19:40:52 48° WNW 19:43:41 10° NNW
NOSS 3-3 (A) 3.9 19:34:49 10° SSW 19:40:35 59° SE 19:41:47 51° E
NOSS 3-3 (C) 3.9 19:34:55 10° SSW 19:40:42 59° SE 19:41:53 51° E
USA 215 3.2 19:39:00 45° E 19:41:11 79° NNE 19:47:45 10° WNW
SJ 16-02 3.4 19:39:38 10° N 19:41:07 17° NNE 19:41:07 17° NNE
COSMO-SKYMED 1 4.2 19:39:26 10° N 19:43:23 34° WNW 19:47:19 10° SW
Cosmos 1076 Rocket 4.2 19:41:31 10° NNW 19:45:39 52° W 19:48:27 19° SSW
MOS 1 Rocket 3.3 19:41:45 10° NNE 19:46:24 84° WNW 19:51:19 10° SSW
Cosmos 2297 Rocket 4.3 19:45:14 10° NW 19:49:46 25° WSW 19:54:18 10° SSW
ATLAS 2AS CENTAUR R/B 2.8 19:43:11 10° NW 19:50:52 75° NE 19:52:43 53° ESE
Cosmos 1777 Rocket 3.9 19:45:58 10° NNW 19:51:06 73° NE 19:51:06 73° NE
Cosmos 2074 Rocket 4.3 19:45:47 10° N 19:51:03 46° NE 19:51:03 46° NE
Cosmos 1980 Rocket 3.7 19:47:08 10° S 19:49:11 22° S 19:49:11 22° S
IRS-1A Rocket 4.1 19:53:26 70° E 19:53:46 72° ENE 19:59:17 10° NNW
COSMOS 2455 4.2 19:49:41 10° NW 19:54:35 25° NNE 19:55:08 24° NNE
Meteor 2-17 Rocket 4.3 19:49:00 10° N 19:55:02 63° ENE 19:55:02 63° ENE
Cosmos 883 Rocket 4.3 19:50:59 10° S 19:57:09 90° E 20:03:19 10° N
Resurs 01 Rocket 4.0 20:02:02 13° N 20:02:02 13° N 20:02:40 10° N
MOS 1 4.1 20:00:46 74° ENE 20:00:47 74° ENE 20:06:29 10° NNW
Cosmos 2315 Rocket 3.8 19:55:12 10° S 20:01:24 81° E 20:07:38 10° NNE
S3M 4.5 19:55:56 10° SSW 20:01:57 58° WNW 20:08:04 10° N
MetOp-A 4.1 20:03:23 70° NNE 20:03:23 70° NNE 20:08:16 10° NNW
Lacrosse 5 2.2 19:58:02 10° WNW 20:02:41 58° N 20:02:41 58° N
Cosmos 2227 4.1 19:58:13 10° NNW 20:03:41 76° NE 20:03:41 76° NE
Cosmos 1455 4.0 20:04:08 10° SW 20:06:17 27° WSW 20:06:17 27° WSW
Cosmos 2360 4.2 20:03:16 10° SSW 20:08:21 71° SSW 20:08:21 71° SSW
Meteor 2-3 Rocket 3.7 20:11:39 10° NNW 20:17:02 79° NNW 20:17:02 79° NNW
Cosmos 2278 Rocket 4.3 20:32:55 10° NNW 20:35:28 16° NNE 20:35:28 16° NNE
ATLAS 5 CENTAUR R/B 3.7 20:33:24 10° NW 20:36:32 25° N 20:36:32 25° N
Cosmos 2369 4.4 20:40:23 10° SW 20:45:12 50° W 20:45:12 50° W
Ariane Rocket 4.2 20:48:03 40° WNW 20:48:03 40° WNW 20:51:57 10° NNW
H-2A R/B 4.4 20:43:41 10° SW 20:47:50 22° W 20:52:01 10° NW
Cosmos 1844 Rocket 4.2 20:43:58 10° NNW 20:46:58 29° N 20:46:58 29° N
Cosmos 2263 Rocket 3.3 20:54:47 10° NW 20:58:58 41° WNW 20:58:58 41° WNW
Cosmos 1697 Rocket 4.2 21:09:01 10° WSW 21:13:13 33° WNW 21:13:13 33° WNW
CZ-4C R/B 3.2 21:09:17 10° NW 21:14:47 60° WNW 21:14:47 60° WNW
SJ 16-02 4.4 21:17:46 10° NNW 21:18:06 12° NNW 21:18:06 12° NNW
USA 215 4.2 21:26:21 40° W 21:26:21 40° W 21:30:52 10° WNW
ATLAS 2AS CENTAUR R/B 4.0 21:34:43 10° NW 21:40:10 34° W 21:40:10 34° W
